Location: Newark
(44.2003°N, 3.2583°E)
Time: 00:40:19
(UTC+00:00)

Courier 1B Rocket - Pass Details

Date: 22 October 2019
Orbit: 920 x 1202 km, 28.2° (Epoch: 21 November)

Event Time Altitude Azimuth Distance (km) Brightness Sun altitude
Exits shadow 03:08:48 15° 154° (SSE) 2,261 6.9 -32.9°
Drops below altitude 10° 03:10:58 10° 134° (SE) 2,609 7.5 -32.5°
Sets 03:14:37 0° 114° (ESE) 3,574 8.6 -31.9°
